[[{"header":{"parameterUnit":"m.s-1","parameterCategory":1,"la1":30.2991,"la2":30.254,"lo1":-89.0895,"lo2":-89.0444,"dy":0.0017,"dx":0.0017,"nx":28,"ny":28,"refTime":"2024-03-18T03:00:00:Z","depth":0,"parameterNumber":2,"parameterNumberName":"U-component_of_WINDS"},"data":[0,0,0,0,0,0,0,0,0,0,0,0,0,0,0,0,0,0,0,0,0,0,0,0,0,0,0,0,0,0,0,0,0,0,0,0,0,0,0,0,0,0,0,0,0,0,0,0,0,0,0,0,0,0,0,0,0,0,0.6276,0.6276,0,0.6287,0.6287,0.6287,0.6302,0.6302,0.6302,0.6303,0.6313,0.6313,0.6313,0,0,0,0,0,0,0,0,0,0,0,0,0,0.6271,0.6271,0.6276,0.6276,0.6277,0.6287,0.6287,0.6287,0.6302,0.6302,0.6302,0.6303,0.6313,0.6313,0.6313,0,0,0,0,0,0,0,0,0,0,0,0,0,0.6276,0.6271,0.6276,0.6285,0.6286,0.6286,0.6287,0.6287,0.6302,0.6302,0.6303,0.6303,0.6313,0.6313,0.6313,0.6305,0,0,0.6313,0.6313,0,0,0,0,0,0,0,0,0.6276,0.6277,0.6284,0.6285,0.6286,0.6293,0.6289,0.6293,0.6302,0.6296,0.6303,0.6303,0.6306,0.6307,0.6308,0.6306,0.6306,0.6313,0.6313,0.6313,0.6313,0,0,0,0,0,0,0,0.6276,0.6276,0.628,0.6284,0.6285,0.6289,0.629,0.6289,0.6299,0.6296,0.6297,0.6299,0.6307,0.6308,0.6308,0.6306,0.6313,0.6313,0.6313,0.6313,0.63,0.63,0,0,0,0,0,0,0.6274,0.6276,0.628,0.6281,0.6282,0.6289,0.629,0.629,0.6299,0.63,0.6298,0.6299,0.6307,0.6308,0.6308,0.6301,0.6313,0.6313,0.6313,0.63,0.63,0.63,0,0,0,0,0,0,0.6274,0.6274,0.628,0.6279,0.628,0.6289,0.6289,0.629,0.6291,0.63,0.6302,0.6297,0.6308,0.6308,0.6306,0.6301,0.6313,0.6313,0.6301,0.63,0.63,0.6284,0,0,0,0,0,0,0.6273,0.6274,0.6271,0.6278,0.628,0.6277,0.6288,0.629,0.6291,0.6293,0.63,0.6301,0.6308,0.6306,0.6306,0.6301,0.6313,0.6301,0.6301,0.63,0.6285,0.6283,0.6281,0,0,0,0,0,0.6273,0.6265,0.627,0.6271,0.6276,0.6276,0.6277,0.6285,0.6291,0.6288,0.6294,0.6301,0.6302,0.6306,0.6306,0.6301,0.6302,0.6301,0.63,0.6286,0.6284,0.6281,0,0,0,0,0,0,0.6256,0.6266,0.6272,0.6267,0.6271,0.6279,0.6275,0.6282,0.6284,0.6285,0.6296,0.6297,0.6294,0.6297,0.6302,0.6295,0.6303,0.6302,0.6292,0.629,0.6288,0.6287,0.6313,0,0,0,0,0,0.6252,0.6252,0.6261,0.6255,0.6257,0.6266,0.6266,0.6273,0.6277,0.6279,0.6284,0.6288,0.629,0.629,0.6292,0.6286,0.6288,0.6283,0.6281,0.628,0.6279,0.6277,0.6275,0.6297,0.6297,0.6297,0,0,0.6243,0.6248,0.6247,0.6252,0.6256,0.6255,0.6267,0.6266,0.6266,0.6278,0.6277,0.6281,0.6287,0.6283,0.6282,0.6286,0.6273,0.6279,0.6277,0.6277,0.6276,0.6274,0.6272,0.6296,0.6296,0.6297,0,0,0.6226,0.623,0.6226,0.623,0.6236,0.6242,0.6242,0.6249,0.6253,0.6252,0.6261,0.6262,0.6264,0.6268,0.627,0.6257,0.6264,0.6257,0.6247,0.6245,0.6244,0.6242,0.6238,0.6236,0.6256,0.6256,0.6256,0,0.6214,0.6213,0.6223,0.6222,0.6224,0.6236,0.6233,0.6236,0.6242,0.6243,0.6249,0.6252,0.6257,0.6254,0.6252,0.6253,0.6253,0.6256,0.6243,0.6242,0.624,0.6236,0.6235,0.6256,0.6256,0.6256,0.6256,0,0.6198,0.6198,0.6194,0.62,0.6202,0.62,0.621,0.6211,0.6217,0.6223,0.6223,0.6229,0.6232,0.6233,0.6239,0.6232,0.6234,0.6241,0.6249,0.6237,0.6234,0.6232,0.6254,0.6255,0.6255,0.6255,0,0,0.6169,0.6182,0.618,0.6184,0.6192,0.6192,0.6191,0.6195,0.6196,0.6201,0.62,0.6202,0.6209,0.6212,0.6219,0.6217,0.6207,0.6224,0.6225,0.6221,0.6201,0.6195,0.6193,0.6213,0.6212,0.6212,0.62,0,0.6153,0.6151,0.6161,0.6157,0.6157,0.617,0.6169,0.6175,0.6181,0.6183,0.619,0.6192,0.62,0.6202,0.6202,0.6209,0.6203,0.621,0.6212,0.6212,0.6209,0.6191,0.6185,0.6173,0.6199,0.6199,0.6198,0,0.6134,0.6138,0.6134,0.6144,0.6144,0.6143,0.6149,0.615,0.6157,0.6162,0.6166,0.6175,0.6175,0.6184,0.6185,0.6189,0.6191,0.6195,0.6195,0.6195,0.6204,0.619,0.6169,0.6167,0.6196,0.6196,0.6197,0,0.6112,0.6117,0.6116,0.6118,0.613,0.6129,0.6134,0.6142,0.6144,0.6149,0.6151,0.6155,0.6158,0.6162,0.6172,0.6178,0.6172,0.6182,0.6176,0.6176,0.6173,0.6173,0.6152,0.6176,0.6176,0.6176,0.6176,0,0.6093,0.609,0.6106,0.6105,0.6103,0.6115,0.6112,0.6118,0.6125,0.6126,0.6138,0.6139,0.6153,0.6155,0.6163,0.6163,0.6164,0.6169,0.6171,0.6167,0.6166,0.6167,0.6168,0.6175,0.6176,0.6176,0.6176,0,0.6068,0.6079,0.6078,0.609,0.6093,0.6091,0.6101,0.6101,0.6109,0.611,0.6111,0.6123,0.6127,0.6138,0.6144,0.615,0.6147,0.6152,0.6145,0.6146,0.614,0.614,0.6118,0.6116,0.6142,0.6141,0.6141,0,0.6055,0.6053,0.6065,0.6066,0.6071,0.6073,0.6076,0.6089,0.6091,0.6101,0.6099,0.6104,0.6109,0.6114,0.6124,0.613,0.6134,0.6126,0.6134,0.6131,0.6133,0.6133,0.6133,0.6123,0.6123,0.6123,0.6123,0,0.6029,0.6035,0.6039,0.6045,0.6048,0.6053,0.6059,0.6059,0.6074,0.6076,0.608,0.6084,0.6091,0.6096,0.6104,0.6109,0.6118,0.612,0.6119,0.6115,0.6111,0.6113,0.6139,0.612,0.612,0.6121,0.6121,0.6121,0.6009,0.6009,0.6018,0.6021,0.6028,0.6033,0.6034,0.6043,0.6046,0.6053,0.6061,0.6065,0.6074,0.6085,0.609,0.6093,0.6098,0.6097,0.6096,0.6095,0.6094,0.6111,0.6095,0.6095,0.6095,0.6095,0.6095,0,0.5985,0.5991,0.5995,0.6003,0.6007,0.6016,0.6024,0.6026,0.6029,0.6037,0.6041,0.6047,0.6052,0.6063,0.607,0.607,0.6075,0.6072,0.6071,0.6073,0.6089,0.6089,0.6068,0.6068,0.6068,0.6068,0.6068,0.6068,0.5972,0.5971,0.5979,0.5982,0.5989,0.5993,0.5996,0.6002,0.6008,0.6014,0.6019,0.6026,0.6036,0.6043,0.6049,0.6052,0.6054,0.6049,0.6054,0.6069,0.6071,0.6074,0.6074,0.605,0.605,0.6037,0.6037,0.6037]},{"header":{"parameterUnit":"m.s-1","parameterCategory":1,"la1":30.2991,"la2":30.254,"lo1":-89.0895,"lo2":-89.0444,"dy":0.0017,"dx":0.0017,"nx":28,"ny":28,"refTime":"2024-03-18T03:00:00:Z","depth":0,"parameterNumber":3,"parameterNumberName":"V-component_of_WINDS"},"data":[0,0,0,0,0,0,0,0,0,0,0,0,0,0,0,0,0,0,0,0,0,0,0,0,0,0,0,0,0,0,0,0,0,0,0,0,0,0,0,0,0,0,0,0,0,0,0,0,0,0,0,0,0,0,0,0,0,0,-5.4998,-5.4999,0,-5.5084,-5.5085,-5.5085,-5.5018,-5.5015,-5.5012,-5.5009,-5.5093,-5.5098,-5.5103,0,0,0,0,0,0,0,0,0,0,0,0,0,-5.4773,-5.4778,-5.4998,-5.4999,-5.5,-5.5083,-5.5085,-5.5086,-5.5018,-5.5015,-5.5011,-5.5008,-5.5092,-5.5098,-5.5104,0,0,0,0,0,0,0,0,0,0,0,0,0,-5.4866,-5.4779,-5.4998,-5.4977,-5.4976,-5.5083,-5.5085,-5.5086,-5.5019,-5.5015,-5.5011,-5.5007,-5.509,-5.5097,-5.5104,-5.5236,0,0,-5.5127,-5.513,0,0,0,0,0,0,0,0,-5.4861,-5.4874,-5.4979,-5.4978,-5.4977,-5.5036,-5.5036,-5.5136,-5.502,-5.5003,-5.5009,-5.5004,-5.5078,-5.5086,-5.5111,-5.524,-5.5244,-5.5128,-5.5132,-5.5135,-5.5137,0,0,0,0,0,0,0,-5.4854,-5.487,-5.5032,-5.498,-5.4979,-5.4962,-5.497,-5.5055,-5.5063,-5.5004,-5.4999,-5.501,-5.5076,-5.5104,-5.5112,-5.5245,-5.5127,-5.5134,-5.5138,-5.5141,-5.5487,-5.5491,0,0,0,0,0,0,-5.4851,-5.4865,-5.5029,-5.5034,-5.4907,-5.4969,-5.4979,-5.5021,-5.5062,-5.5064,-5.5014,-5.5007,-5.5094,-5.5104,-5.5115,-5.5273,-5.5135,-5.5142,-5.5146,-5.5482,-5.5488,-5.5493,0,0,0,0,0,0,-5.4846,-5.4866,-5.5025,-5.4949,-5.4968,-5.4978,-5.5026,-5.5025,-5.5053,-5.507,-5.507,-5.5041,-5.5091,-5.5105,-5.5207,-5.5275,-5.5145,-5.5152,-5.5477,-5.5484,-5.5491,-5.5589,0,0,0,0,0,0,-5.484,-5.4865,-5.4916,-5.495,-5.4972,-5.5117,-5.503,-5.503,-5.5066,-5.5058,-5.5095,-5.5097,-5.5088,-5.5196,-5.5214,-5.5283,-5.5158,-5.5471,-5.548,-5.5488,-5.558,-5.5599,-5.5615,0,0,0,0,0,-5.4832,-5.4939,-5.4918,-5.4939,-5.5036,-5.5121,-5.5133,-5.5122,-5.5072,-5.5123,-5.5134,-5.5096,-5.5264,-5.5207,-5.5227,-5.5299,-5.5466,-5.5477,-5.5488,-5.5572,-5.5595,-5.5614,0,0,0,0,0,0,-5.491,-5.4943,-5.4921,-5.5042,-5.508,-5.511,-5.5174,-5.5147,-5.5198,-5.5188,-5.517,-5.5179,-5.5287,-5.5302,-5.5239,-5.5428,-5.5357,-5.5372,-5.5415,-5.5437,-5.5454,-5.5448,-5.5164,0,0,0,0,0,-5.4942,-5.501,-5.5034,-5.5139,-5.5159,-5.5163,-5.52,-5.5188,-5.5225,-5.524,-5.5259,-5.5296,-5.5357,-5.5397,-5.5454,-5.5581,-5.5589,-5.564,-5.5658,-5.5672,-5.5686,-5.5754,-5.5778,-5.5528,-5.5528,-5.5528,0,0,-5.5007,-5.5034,-5.5077,-5.5155,-5.5183,-5.5252,-5.5177,-5.5253,-5.5305,-5.5252,-5.535,-5.5365,-5.5404,-5.552,-5.5572,-5.5536,-5.5756,-5.5686,-5.5697,-5.5703,-5.5768,-5.5791,-5.5812,-5.5535,-5.5534,-5.5533,0,0,-5.5163,-5.5189,-5.528,-5.531,-5.5353,-5.5355,-5.5377,-5.5412,-5.542,-5.5519,-5.5481,-5.5541,-5.5646,-5.5677,-5.5706,-5.5874,-5.5841,-5.5892,-5.5984,-5.6052,-5.6071,-5.6089,-5.6149,-5.6171,-5.5906,-5.5906,-5.5906,0,-5.5239,-5.5343,-5.533,-5.541,-5.5445,-5.5402,-5.5493,-5.5522,-5.5582,-5.5607,-5.5566,-5.5699,-5.5722,-5.5845,-5.5886,-5.5911,-5.5935,-5.5888,-5.607,-5.6087,-5.6103,-5.616,-5.6183,-5.5912,-5.5911,-5.5911,-5.591,0,-5.5434,-5.5508,-5.5575,-5.5636,-5.5679,-5.5764,-5.5763,-5.5807,-5.5792,-5.5798,-5.5899,-5.5926,-5.5989,-5.6016,-5.6001,-5.6137,-5.6114,-5.6072,-5.6,-5.6133,-5.6187,-5.6208,-5.5921,-5.5918,-5.5917,-5.5915,0,0,-5.5641,-5.5694,-5.5719,-5.5747,-5.5791,-5.5847,-5.593,-5.5993,-5.6032,-5.6074,-5.6143,-5.6234,-5.6196,-5.6229,-5.6217,-5.6276,-5.6408,-5.6227,-5.6227,-5.626,-5.656,-5.6592,-5.6617,-5.6386,-5.639,-5.6394,-5.6557,0,-5.5799,-5.5946,-5.5937,-5.6074,-5.6142,-5.6102,-5.6174,-5.6209,-5.6217,-5.6275,-5.6283,-5.6348,-5.6292,-5.6312,-5.6369,-5.638,-5.6468,-5.6368,-5.645,-5.6453,-5.6442,-5.6645,-5.6679,-5.6831,-5.6577,-5.6581,-5.6583,0,-5.6004,-5.6055,-5.62,-5.6236,-5.6263,-5.6329,-5.6386,-5.6441,-5.648,-5.6481,-5.652,-5.6498,-5.6581,-5.6507,-5.6621,-5.6553,-5.6586,-5.6596,-5.6602,-5.661,-5.6527,-5.6659,-5.688,-5.6903,-5.6616,-5.6614,-5.6611,0,-5.6141,-5.6246,-5.6347,-5.6371,-5.6415,-5.6462,-5.6482,-5.6517,-5.6555,-5.6604,-5.6629,-5.6686,-5.6718,-5.6762,-5.6756,-5.6703,-5.6873,-5.6798,-5.6876,-5.6877,-5.6914,-5.6912,-5.7144,-5.6935,-5.6934,-5.6934,-5.6933,0,-5.6319,-5.6409,-5.6409,-5.6471,-5.6571,-5.6559,-5.6658,-5.6672,-5.6704,-5.6767,-5.6735,-5.6795,-5.6783,-5.6842,-5.6838,-5.6933,-5.6947,-5.6951,-5.6949,-5.6954,-5.6954,-5.6976,-5.6965,-5.694,-5.6938,-5.6937,-5.6936,0,-5.649,-5.6493,-5.6601,-5.6634,-5.6644,-5.6717,-5.6744,-5.6802,-5.6808,-5.6889,-5.6907,-5.6916,-5.6984,-5.6982,-5.7059,-5.7056,-5.7174,-5.7159,-5.7162,-5.7159,-5.7238,-5.7231,-5.7493,-5.7526,-5.7294,-5.7297,-5.7298,0,-5.6604,-5.6673,-5.6714,-5.6755,-5.6779,-5.6845,-5.6884,-5.6875,-5.6917,-5.6966,-5.7019,-5.7084,-5.7137,-5.7248,-5.726,-5.7319,-5.7306,-5.7393,-5.7314,-5.7318,-5.7308,-5.7304,-5.7311,-5.7409,-5.7412,-5.7414,-5.7415,0,-5.6806,-5.6804,-5.6863,-5.6923,-5.6972,-5.7018,-5.706,-5.7095,-5.709,-5.7139,-5.721,-5.7251,-5.733,-5.7396,-5.7453,-5.7472,-5.7443,-5.744,-5.7462,-5.7468,-5.7468,-5.747,-5.7205,-5.7434,-5.7432,-5.7431,-5.743,-5.7429,-5.6952,-5.7012,-5.7051,-5.7117,-5.7149,-5.7189,-5.7246,-5.726,-5.7319,-5.7384,-5.7374,-5.7453,-5.749,-5.7563,-5.7588,-5.7649,-5.7618,-5.7648,-5.7656,-5.7664,-5.7674,-5.7458,-5.7659,-5.7658,-5.7658,-5.7657,-5.7657,0,-5.7153,-5.7176,-5.7238,-5.7299,-5.7352,-5.7321,-5.7367,-5.7413,-5.7483,-5.752,-5.7573,-5.7654,-5.7718,-5.7736,-5.7797,-5.7842,-5.783,-5.7858,-5.7855,-5.786,-5.7698,-5.7673,-5.7867,-5.7867,-5.7867,-5.7867,-5.7867,-5.7867,-5.7264,-5.7364,-5.7367,-5.7482,-5.7504,-5.7582,-5.7611,-5.7648,-5.7678,-5.7771,-5.7824,-5.7836,-5.7865,-5.7928,-5.7985,-5.7989,-5.8013,-5.8047,-5.8045,-5.7893,-5.7872,-5.7852,-5.7829,-5.8052,-5.8052,-5.8203,-5.8204,-5.8205]}]]